| time (UTC) | temp F | wind direction | speed MPH | gust MPH | rain 1hr in | rain 24hr in | rain mn in | humidity % | barometer mb |
| 20260904105755 | 71 | 341 | 0.0 | 0.0 | 0.00 | 0.00 | 0.00 | 99 | 1016.7 |
| 20260904105250 | 71 | 346 | 0.0 | 0.0 | 0.00 | 0.00 | 0.00 | 99 | 1016.5 |
| 20260904104745 | 71 | 346 | 0.0 | 0.0 | 0.00 | 0.00 | 0.00 | 99 | 1016.4 |
| 20260904104240 | 72 | 344 | 0.0 | 0.0 | 0.00 | 0.00 | 0.00 | 99 | 1016.5 |
| 20260904103738 | 72 | 349 | 0.0 | 0.0 | 0.00 | 0.00 | 0.00 | 99 | 1016.6 |
| 20260904103232 | 71 | 349 | 0.0 | 0.0 | 0.00 | 0.00 | 0.00 | 99 | 1016.4 |
| 20260904102727 | 71 | 345 | 0.0 | 0.0 | 0.00 | 0.00 | 0.00 | 99 | 1016.5 |
| 20260904102223 | 71 | 339 | 0.0 | 0.0 | 0.00 | 0.00 | 0.00 | 99 | 1016.5 |
| 20260904101714 | 71 | 343 | 0.0 | 0.0 | 0.00 | 0.00 | 0.00 | 99 | 1016.4 |
| 20260904101210 | 72 | 343 | 0.0 | 0.0 | 0.00 | 0.00 | 0.00 | 99 | 1016.5 |
| 20260904100705 | 72 | 346 | 0.0 | 0.0 | 0.00 | 0.00 | 0.00 | 99 | 1016.4 |
| 20260904100201 | 71 | 346 | 0.0 | 0.0 | 0.00 | 0.00 | 0.00 | 99 | 1016.4 |
| 20260904095700 | 72 | 344 | 0.0 | 0.0 | 0.00 | 0.00 | 0.00 | 99 | 1016.3 |
| 20260904095155 | 72 | 355 | 0.0 | 0.0 | 0.00 | 0.00 | 0.00 | 99 | 1016.4 |
| 20260904094650 | 72 | 346 | 0.0 | 0.0 | 0.00 | 0.00 | 0.00 | 99 | 1016.5 |
| 20260904094144 | 72 | 344 | 0.0 | 0.0 | 0.00 | 0.00 | 0.00 | 99 | 1016.4 |
| 20260904093642 | 72 | 343 | 0.0 | 0.0 | 0.00 | 0.00 | 0.00 | 99 | 1016.3 |
| 20260904093141 | 72 | 344 | 0.0 | 0.0 | 0.00 | 0.00 | 0.00 | 99 | 1016.3 |
| 20260904092637 | 72 | 346 | 0.0 | 0.0 | 0.00 | 0.00 | 0.00 | 99 | 1016.4 |
| 20260904092133 | 72 | 345 | 0.0 | 0.0 | 0.00 | 0.00 | 0.00 | 99 | 1016.2 |
| 20260904091629 | 72 | 347 | 0.0 | 0.0 | 0.00 | 0.00 | 0.00 | 99 | 1016.3 |
| 20260904091129 | 72 | 340 | 0.0 | 0.0 | 0.00 | 0.00 | 0.00 | 99 | 1016.2 |
| 20260904090625 | 72 | 343 | 0.0 | 0.0 | 0.00 | 0.00 | 0.00 | 99 | 1016.4 |
| 20260904090120 | 72 | 345 | 0.0 | 0.0 | 0.00 | 0.00 | 0.00 | 99 | 1016.5 |
| 20260904085620 | 72 | 345 | 0.0 | 0.0 | 0.00 | 0.00 | 0.00 | 99 | 1016.3 |
| 20260904085120 | 71 | 345 | 0.0 | 0.0 | 0.00 | 0.00 | 0.00 | 99 | 1016.3 |
| 20260904084615 | 71 | 345 | 0.0 | 0.0 | 0.00 | 0.00 | 0.00 | 99 | 1016.2 |
| 20260904084112 | 71 | 345 | 0.0 | 0.0 | 0.00 | 0.00 | 0.00 | 99 | 1016.2 |
| 20260904083608 | 71 | 345 | 0.0 | 0.0 | 0.00 | 0.00 | 0.00 | 99 | 1016.2 |
| 20260904083103 | 71 | 344 | 0.0 | 0.0 | 0.00 | 0.00 | 0.00 | 99 | 1016.2 |
| 20260904082558 | 72 | 344 | 0.0 | 0.0 | 0.00 | 0.00 | 0.00 | 99 | 1016.2 |
| 20260904082053 | 73 | 336 | 0.0 | 0.0 | 0.00 | 0.00 | 0.00 | 99 | 1016.4 |
| 20260904081549 | 72 | 346 | 0.0 | 0.0 | 0.00 | 0.00 | 0.00 | 99 | 1016.4 |
| 20260904081044 | 72 | 347 | 0.0 | 0.0 | 0.00 | 0.00 | 0.00 | 99 | 1016.3 |
| 20260904080539 | 72 | 344 | 0.0 | 0.0 | 0.00 | 0.00 | 0.00 | 99 | 1016.2 |
| 20260904080036 | 72 | 344 | 0.0 | 0.0 | 0.00 | 0.00 | 0.00 | 99 | 1016.3 |
| 20260904075532 | 72 | 344 | 0.0 | 0.0 | 0.00 | 0.00 | 0.00 | 99 | 1016.3 |
| 20260904075027 | 72 | 344 | 0.0 | 0.0 | 0.00 | 0.00 | 0.00 | 99 | 1016.3 |
| 20260904074520 | 72 | 344 | 0.0 | 0.0 | 0.00 | 0.00 | 0.00 | 99 | 1016.2 |
| 20260904074020 | 73 | 344 | 0.0 | 0.0 | 0.00 | 0.00 | 0.00 | 99 | 1016.2 |
| 20260904073515 | 73 | 344 | 0.0 | 0.0 | 0.00 | 0.00 | 0.00 | 99 | 1016.3 |
| 20260904073012 | 72 | 342 | 0.0 | 0.0 | 0.00 | 0.00 | 0.00 | 99 | 1016.4 |
| 20260904072508 | 72 | 342 | 0.0 | 0.0 | 0.00 | 0.00 | 0.00 | 99 | 1016.5 |
| 20260904072008 | 72 | 342 | 0.0 | 0.0 | 0.00 | 0.00 | 0.00 | 99 | 1016.3 |
| 20260904071503 | 72 | 342 | 0.0 | 0.0 | 0.00 | 0.00 | 0.00 | 99 | 1016.5 |
| 20260904070958 | 72 | 342 | 0.0 | 0.0 | 0.00 | 0.00 | 0.00 | 99 | 1016.3 |
| 20260904070456 | 73 | 341 | 0.0 | 0.0 | 0.00 | 0.00 | 0.00 | 99 | 1016.4 |
| 20260904065951 | 73 | 341 | 0.0 | 0.0 | 0.00 | 0.00 | 0.00 | 99 | 1016.5 |
| 20260904065447 | 73 | 347 | 0.0 | 0.0 | 0.00 | 0.00 | 0.00 | 99 | 1016.4 |
| 20260904064943 | 73 | 344 | 0.0 | 0.0 | 0.00 | 0.00 | 0.00 | 99 | 1016.5 |
| 20260904064439 | 73 | 344 | 0.0 | 0.0 | 0.00 | 0.00 | 0.00 | 99 | 1016.5 |
| 20260904063939 | 73 | 337 | 0.0 | 0.0 | 0.00 | 0.00 | 0.00 | 99 | 1016.5 |
| 20260904063436 | 73 | 344 | 0.0 | 0.0 | 0.00 | 0.00 | 0.00 | 99 | 1016.5 |
| 20260904062930 | 73 | 348 | 0.0 | 0.0 | 0.00 | 0.00 | 0.00 | 99 | 1016.7 |
| 20260904062426 | 74 | 348 | 0.0 | 0.0 | 0.00 | 0.00 | 0.00 | 99 | 1016.6 |
| 20260904061922 | 73 | 346 | 0.0 | 0.0 | 0.00 | 0.00 | 0.00 | 99 | 1016.6 |
| 20260904061418 | 73 | 343 | 0.0 | 0.0 | 0.00 | 0.00 | 0.00 | 99 | 1016.9 |
| 20260904060914 | 73 | 343 | 0.0 | 0.0 | 0.00 | 0.00 | 0.00 | 99 | 1016.9 |
| 20260904060410 | 73 | 344 | 0.0 | 0.0 | 0.00 | 0.00 | 0.00 | 99 | 1016.9 |
| 20260904055905 | 73 | 342 | 0.0 | 0.0 | 0.00 | 0.00 | 0.00 | 99 | 1016.9 |
| 20260904055400 | 73 | 348 | 0.0 | 0.0 | 0.00 | 0.00 | 0.00 | 99 | 1016.8 |
| 20260904054856 | 73 | 348 | 0.0 | 0.0 | 0.00 | 0.00 | 0.00 | 99 | 1016.8 |
| 20260904054352 | 74 | 344 | 0.0 | 0.0 | 0.00 | 0.00 | 0.00 | 99 | 1016.8 |
| 20260904053847 | 73 | 346 | 0.0 | 0.0 | 0.00 | 0.00 | 0.00 | 99 | 1016.8 |
| 20260904053346 | 73 | 346 | 0.0 | 0.0 | 0.00 | 0.00 | 0.00 | 99 | 1016.9 |
| 20260904052843 | 74 | 346 | 0.0 | 0.0 | 0.00 | 0.00 | 0.00 | 99 | 1016.8 |
| 20260904052338 | 74 | 347 | 0.0 | 0.0 | 0.00 | 0.00 | 0.00 | 99 | 1017.0 |
| 20260904051835 | 74 | 344 | 0.0 | 0.0 | 0.00 | 0.00 | 0.00 | 99 | 1016.9 |
| 20260904051330 | 74 | 344 | 0.0 | 0.0 | 0.00 | 0.00 | 0.00 | 99 | 1016.9 |
| 20260904050825 | 74 | 344 | 0.0 | 0.0 | 0.00 | 0.00 | 0.00 | 99 | 1016.9 |
| 20260904050322 | 74 | 342 | 0.0 | 0.0 | 0.00 | 0.00 | 0.00 | 99 | 1017.0 |
| 20260904045821 | 74 | 340 | 0.0 | 0.0 | 0.00 | 0.00 | 0.00 | 99 | 1016.9 |
| 20260904045317 | 74 | 348 | 0.0 | 0.0 | 0.00 | 0.00 | 0.00 | 99 | 1016.8 |
| 20260904044811 | 75 | 348 | 0.0 | 0.0 | 0.00 | 0.00 | 0.00 | 98 | 1017.2 |
| 20260904044308 | 74 | 348 | 0.0 | 0.0 | 0.00 | 0.00 | 0.00 | 98 | 1017.2 |
| 20260904043804 | 74 | 348 | 0.0 | 0.0 | 0.00 | 0.00 | 0.00 | 98 | 1016.9 |
| 20260904043300 | 75 | 348 | 0.0 | 0.0 | 0.00 | 0.00 | 0.00 | 98 | 1017.1 |
| 20260904042754 | 75 | 348 | 0.0 | 0.0 | 0.00 | 0.00 | 0.00 | 98 | 1016.9 |
| 20260904042251 | 74 | 347 | 0.0 | 0.0 | 0.00 | 0.00 | 0.00 | 98 | 1016.7 |
| 20260904041750 | 75 | 347 | 0.0 | 0.0 | 0.00 | 0.00 | 0.00 | 98 | 1016.8 |
| 20260904041247 | 74 | 347 | 0.0 | 0.0 | 0.00 | 0.00 | 0.00 | 98 | 1016.8 |
| 20260904040743 | 75 | 347 | 0.0 | 0.0 | 0.00 | 0.00 | 0.00 | 98 | 1016.9 |
| 20260904040238 | 75 | 348 | 0.0 | 0.0 | 0.00 | 0.00 | 0.00 | 97 | 1016.7 |
| 20260904035734 | 75 | 348 | 0.0 | 0.0 | 0.00 | 0.00 | 0.00 | 97 | 1016.8 |
| 20260904035229 | 75 | 348 | 0.0 | 0.0 | 0.00 | 0.00 | 0.00 | 97 | 1016.6 |
| 20260904034728 | 75 | 348 | 0.0 | 0.0 | 0.00 | 0.00 | 0.00 | 97 | 1016.5 |
| 20260904034224 | 75 | 352 | 0.0 | 0.0 | 0.00 | 0.00 | 0.00 | 97 | 1016.7 |
| 20260904033720 | 75 | 343 | 0.0 | 0.0 | 0.00 | 0.00 | 0.00 | 97 | 1016.7 |
| 20260904033216 | 75 | 343 | 0.0 | 0.0 | 0.00 | 0.00 | 0.00 | 97 | 1016.9 |
| 20260904032712 | 75 | 343 | 0.0 | 0.0 | 0.00 | 0.00 | 0.00 | 97 | 1016.8 |
| 20260904032211 | 75 | 344 | 0.0 | 0.0 | 0.00 | 0.00 | 0.00 | 96 | 1016.8 |
| 20260904031711 | 76 | 344 | 0.0 | 0.0 | 0.00 | 0.00 | 0.00 | 96 | 1016.8 |
| 20260904031206 | 76 | 343 | 0.0 | 0.0 | 0.00 | 0.00 | 0.00 | 96 | 1016.8 |
| 20260904030702 | 76 | 345 | 0.0 | 0.0 | 0.00 | 0.00 | 0.00 | 96 | 1016.8 |
| 20260904030157 | 76 | 345 | 0.0 | 0.0 | 0.00 | 0.00 | 0.00 | 96 | 1016.8 |
| 20260904025654 | 76 | 344 | 0.0 | 0.0 | 0.00 | 0.00 | 0.00 | 95 | 1016.8 |
| 20260904025148 | 76 | 345 | 0.0 | 0.0 | 0.00 | 0.00 | 0.00 | 95 | 1017.0 |
| 20260904024644 | 76 | 345 | 0.0 | 0.0 | 0.00 | 0.00 | 0.00 | 95 | 1016.9 |
| 20260904024140 | 77 | 345 | 0.0 | 0.0 | 0.00 | 0.00 | 0.00 | 94 | 1017.0 |
| 20260904023636 | 76 | 345 | 0.0 | 0.0 | 0.00 | 0.00 | 0.00 | 94 | 1017.0 |
| 20260904023131 | 76 | 345 | 0.0 | 0.0 | 0.00 | 0.00 | 0.00 | 93 | 1017.0 |
| 20260904022631 | 77 | 345 | 0.0 | 0.0 | 0.00 | 0.00 | 0.00 | 93 | 1016.9 |
| 20260904022128 | 77 | 345 | 0.0 | 0.0 | 0.00 | 0.00 | 0.00 | 93 | 1017.0 |
| 20260904021624 | 77 | 345 | 0.0 | 0.0 | 0.00 | 0.00 | 0.00 | 93 | 1016.8 |
| 20260904021119 | 77 | 349 | 0.0 | 0.0 | 0.00 | 0.00 | 0.00 | 92 | 1016.9 |
| 20260904020615 | 78 | 349 | 0.0 | 0.0 | 0.00 | 0.00 | 0.00 | 91 | 1016.8 |
| 20260904020109 | 78 | 349 | 0.0 | 0.0 | 0.00 | 0.00 | 0.00 | 90 | 1016.8 |
| 20260904015603 | 78 | 349 | 0.0 | 0.0 | 0.00 | 0.00 | 0.00 | 91 | 1016.9 |
| 20260904015102 | 78 | 340 | 0.0 | 0.0 | 0.00 | 0.00 | 0.00 | 92 | 1016.9 |
| 20260904014601 | 78 | 346 | 0.0 | 0.0 | 0.00 | 0.00 | 0.00 | 91 | 1016.9 |
| 20260904014057 | 78 | 346 | 0.0 | 0.0 | 0.00 | 0.00 | 0.00 | 90 | 1017.2 |
| 20260904013554 | 78 | 346 | 0.0 | 0.0 | 0.00 | 0.00 | 0.00 | 91 | 1017.2 |
| 20260904013050 | 78 | 345 | 0.0 | 0.0 | 0.00 | 0.00 | 0.00 | 90 | 1017.1 |
| 20260904012550 | 78 | 345 | 0.0 | 0.0 | 0.00 | 0.00 | 0.00 | 90 | 1016.9 |
| 20260904012044 | 79 | 345 | 0.0 | 0.0 | 0.00 | 0.00 | 0.00 | 90 | 1016.8 |
| 20260904011543 | 79 | 345 | 0.0 | 0.0 | 0.00 | 0.00 | 0.00 | 90 | 1016.8 |
| 20260904011039 | 79 | 344 | 0.0 | 0.0 | 0.00 | 0.00 | 0.00 | 89 | 1017.0 |
| 20260904010535 | 80 | 345 | 0.0 | 0.0 | 0.00 | 0.00 | 0.00 | 88 | 1016.6 |
| 20260904010031 | 80 | 345 | 0.0 | 0.0 | 0.00 | 0.00 | 0.00 | 87 | 1016.8 |
| 20260904005531 | 80 | 345 | 0.0 | 0.0 | 0.00 | 0.00 | 0.00 | 86 | 1016.9 |
| 20260904005027 | 80 | 345 | 0.0 | 0.0 | 0.00 | 0.00 | 0.00 | 85 | 1016.5 |
| 20260904004522 | 81 | 345 | 0.0 | 0.0 | 0.00 | 0.00 | 0.00 | 85 | 1016.7 |
| 20260904004022 | 81 | 345 | 0.0 | 0.0 | 0.00 | 0.00 | 0.00 | 84 | 1016.3 |
| 20260904003518 | 82 | 345 | 0.0 | 0.0 | 0.00 | 0.00 | 0.00 | 82 | 1016.4 |
| 20260904003014 | 82 | 345 | 0.0 | 0.0 | 0.00 | 0.00 | 0.00 | 82 | 1016.4 |
| 20260904002510 | 83 | 345 | 0.0 | 0.0 | 0.00 | 0.00 | 0.00 | 81 | 1016.5 |
| 20260904002009 | 83 | 345 | 0.0 | 0.0 | 0.00 | 0.00 | 0.00 | 80 | 1016.4 |
| 20260904001505 | 83 | 345 | 0.0 | 0.0 | 0.00 | 0.00 | 0.00 | 80 | 1016.3 |
| 20260904001004 | 84 | 345 | 0.0 | 0.0 | 0.00 | 0.00 | 0.00 | 80 | 1016.2 |
| 20260904000504 | 84 | 345 | 0.0 | 0.0 | 0.00 | 0.00 | 0.00 | 79 | 1016.2 |
| 20260904000000 | 85 | 345 | 0.0 | 0.0 | 0.00 | 0.00 | 0.00 | 78 | 1016.2 |
| 20260903235455 | 86 | 347 | 0.0 | 0.0 | 0.00 | 0.00 | 0.00 | 77 | 1016.0 |
| 20260903234954 | 86 | 347 | 0.0 | 0.0 | 0.00 | 0.00 | 0.00 | 76 | 1016.2 |
| 20260903234450 | 87 | 347 | 0.0 | 0.0 | 0.00 | 0.00 | 0.00 | 73 | 1016.0 |
| 20260903233947 | 88 | 347 | 0.0 | 0.0 | 0.00 | 0.00 | 0.00 | 74 | 1016.0 |
| 20260903233442 | 88 | 347 | 0.0 | 0.0 | 0.00 | 0.00 | 0.00 | 71 | 1016.1 |
| 20260903232937 | 90 | 335 | 0.0 | 0.0 | 0.00 | 0.00 | 0.00 | 70 | 1015.9 |
| 20260903232432 | 91 | 345 | 0.0 | 0.0 | 0.00 | 0.00 | 0.00 | 65 | 1015.9 |
| 20260903231932 | 92 | 332 | 0.0 | 0.0 | 0.00 | 0.00 | 0.00 | 65 | 1015.9 |
| 20260903231427 | 93 | 338 | 0.0 | 0.0 | 0.00 | 0.00 | 0.00 | 62 | 1015.8 |
| 20260903230922 | 93 | 334 | 0.0 | 0.0 | 0.00 | 0.00 | 0.00 | 58 | 1015.7 |
| 20260903230418 | 93 | 336 | 0.0 | 0.0 | 0.00 | 0.00 | 0.00 | 60 | 1015.9 |
| 20260903225914 | 93 | 285 | 1.0 | 2.0 | 0.00 | 0.00 | 0.00 | 58 | 1015.9 |
| 20260903225409 | 93 | 311 | 0.0 | 0.0 | 0.00 | 0.00 | 0.00 | 57 | 1016.0 |
| 20260903224905 | 93 | 293 | 0.0 | 0.0 | 0.00 | 0.00 | 0.00 | 57 | 1015.9 |
| 20260903224401 | 94 | 346 | 1.0 | 2.0 | 0.00 | 0.00 | 0.00 | 57 | 1015.8 |
| 20260903223857 | 94 | 349 | 0.0 | 0.0 | 0.00 | 0.00 | 0.00 | 56 | 1015.9 |
| 20260903223355 | 94 | 188 | 2.0 | 3.0 | 0.00 | 0.00 | 0.00 | 56 | 1015.8 |
| 20260903222850 | 94 | 311 | 0.0 | 1.0 | 0.00 | 0.00 | 0.00 | 57 | 1015.8 |
| 20260903222350 | 95 | 332 | 1.0 | 1.0 | 0.00 | 0.00 | 0.00 | 55 | 1015.8 |
| 20260903221845 | 94 | 345 | 1.0 | 2.0 | 0.00 | 0.00 | 0.00 | 56 | 1015.5 |
| 20260903221344 | 94 | 238 | 2.0 | 5.0 | 0.00 | 0.00 | 0.00 | 56 | 1015.4 |
| 20260903220842 | 95 | 274 | 1.0 | 1.0 | 0.00 | 0.00 | 0.00 | 54 | 1015.6 |
| 20260903220336 | 95 | 289 | 2.0 | 2.0 | 0.00 | 0.00 | 0.00 | 54 | 1015.5 |
| 20260903215834 | 94 | 212 | 3.0 | 3.0 | 0.00 | 0.00 | 0.00 | 57 | 1015.3 |
| 20260903215326 | 95 | 337 | 1.0 | 1.0 | 0.00 | 0.00 | 0.00 | 56 | 1015.3 |
| 20260903214823 | 96 | 235 | 3.0 | 3.0 | 0.00 | 0.00 | 0.00 | 54 | 1015.3 |
| 20260903214320 | 96 | 325 | 3.0 | 3.0 | 0.00 | 0.00 | 0.00 | 52 | 1015.5 |
| 20260903213814 | 96 | 228 | 5.0 | 6.0 | 0.00 | 0.00 | 0.00 | 52 | 1015.6 |
| 20260903213309 | 96 | 346 | 1.0 | 1.0 | 0.00 | 0.00 | 0.00 | 51 | 1015.3 |
| 20260903212805 | 96 | 227 | 4.0 | 5.0 | 0.00 | 0.00 | 0.00 | 53 | 1015.4 |
| 20260903212302 | 95 | 355 | 3.0 | 5.0 | 0.00 | 0.00 | 0.00 | 52 | 1015.6 |
| 20260903211800 | 96 | 225 | 5.0 | 5.0 | 0.00 | 0.00 | 0.00 | 54 | 1015.4 |
| 20260903211257 | 95 | 326 | 1.0 | 2.0 | 0.00 | 0.00 | 0.00 | 52 | 1015.4 |
| 20260903210753 | 96 | 193 | 5.0 | 8.0 | 0.00 | 0.00 | 0.00 | 53 | 1015.6 |
| 20260903210248 | 96 | 220 | 6.0 | 7.0 | 0.00 | 0.00 | 0.00 | 53 | 1015.6 |
| 20260903205747 | 98 | 314 | 1.0 | 2.0 | 0.00 | 0.00 | 0.00 | 49 | 1015.7 |
| 20260903205247 | 97 | 254 | 3.0 | 3.0 | 0.00 | 0.00 | 0.00 | 51 | 1015.8 |
| 20260903204743 | 98 | 216 | 5.0 | 8.0 | 0.00 | 0.00 | 0.00 | 50 | 1015.6 |
| 20260903204239 | 97 | 326 | 1.0 | 1.0 | 0.00 | 0.00 | 0.00 | 52 | 1015.8 |
| 20260903203734 | 93 | 291 | 0.0 | 1.0 | 0.00 | 0.00 | 0.00 | 58 | 1015.6 |
| 20260903203230 | 95 | 349 | 2.0 | 2.0 | 0.00 | 0.00 | 0.00 | 55 | 1015.7 |
| 20260903202723 | 96 | 252 | 3.0 | 5.0 | 0.00 | 0.00 | 0.00 | 52 | 1016.0 |
| 20260903202220 | 96 | 224 | 5.0 | 7.0 | 0.00 | 0.00 | 0.00 | 53 | 1016.0 |
| 20260903201719 | 97 | 224 | 4.0 | 6.0 | 0.00 | 0.00 | 0.00 | 51 | 1016.1 |
| 20260903201214 | 97 | 347 | 0.0 | 0.0 | 0.00 | 0.00 | 0.00 | 49 | 1016.1 |
| 20260903200708 | 97 | 293 | 4.0 | 6.0 | 0.00 | 0.00 | 0.00 | 49 | 1016.3 |
| 20260903200204 | 98 | 336 | 3.0 | 5.0 | 0.00 | 0.00 | 0.00 | 51 | 1016.3 |
| 20260903195659 | 98 | 298 | 2.0 | 3.0 | 0.00 | 0.00 | 0.00 | 49 | 1016.4 |
| 20260903195155 | 98 | 281 | 2.0 | 2.0 | 0.00 | 0.00 | 0.00 | 51 | 1016.5 |
| 20260903194655 | 98 | 312 | 3.0 | 5.0 | 0.00 | 0.00 | 0.00 | 50 | 1016.5 |
| 20260903194150 | 97 | 228 | 2.0 | 3.0 | 0.00 | 0.00 | 0.00 | 50 | 1016.5 |
| 20260903193646 | 97 | 116 | 4.0 | 7.0 | 0.00 | 0.00 | 0.00 | 51 | 1016.6 |
| 20260903193146 | 98 | 234 | 4.0 | 7.0 | 0.00 | 0.00 | 0.00 | 49 | 1016.6 |
| 20260903192642 | 98 | 222 | 4.0 | 5.0 | 0.00 | 0.00 | 0.00 | 49 | 1016.7 |
| 20260903192137 | 98 | 294 | 2.0 | 2.0 | 0.00 | 0.00 | 0.00 | 49 | 1016.8 |
| 20260903191634 | 96 | 216 | 7.0 | 9.0 | 0.00 | 0.00 | 0.00 | 51 | 1016.9 |
| 20260903191133 | 97 | 210 | 6.0 | 6.0 | 0.00 | 0.00 | 0.00 | 50 | 1016.8 |
| 20260903190633 | 97 | 218 | 4.0 | 8.0 | 0.00 | 0.00 | 0.00 | 50 | 1016.9 |
| 20260903190133 | 96 | 318 | 2.0 | 3.0 | 0.00 | 0.00 | 0.00 | 51 | 1016.9 |
| 20260903185628 | 96 | 228 | 5.0 | 8.0 | 0.00 | 0.00 | 0.00 | 51 | 1016.9 |
| 20260903185123 | 98 | 182 | 6.0 | 7.0 | 0.00 | 0.00 | 0.00 | 51 | 1016.9 |
| 20260903184620 | 97 | 289 | 3.0 | 3.0 | 0.00 | 0.00 | 0.00 | 51 | 1016.8 |
| 20260903184115 | 97 | 223 | 5.0 | 7.0 | 0.00 | 0.00 | 0.00 | 51 | 1016.8 |
| 20260903183614 | 97 | 351 | 3.0 | 3.0 | 0.00 | 0.00 | 0.00 | 49 | 1016.8 |
| 20260903183109 | 96 | 216 | 9.0 | 11.0 | 0.00 | 0.00 | 0.00 | 52 | 1016.9 |
| 20260903182608 | 96 | 342 | 1.0 | 2.0 | 0.00 | 0.00 | 0.00 | 54 | 1016.9 |
| 20260903182104 | 98 | 344 | 1.0 | 1.0 | 0.00 | 0.00 | 0.00 | 51 | 1017.1 |
| 20260903181602 | 97 | 326 | 5.0 | 6.0 | 0.00 | 0.00 | 0.00 | 49 | 1017.0 |
| 20260903181057 | 97 | 299 | 1.0 | 2.0 | 0.00 | 0.00 | 0.00 | 51 | 1017.2 |
| 20260903180552 | 97 | 339 | 0.0 | 0.0 | 0.00 | 0.00 | 0.00 | 52 | 1017.0 |
| 20260903180047 | 96 | 322 | 0.0 | 0.0 | 0.00 | 0.00 | 0.00 | 51 | 1017.3 |
| 20260903175545 | 97 | 352 | 0.0 | 0.0 | 0.00 | 0.00 | 0.00 | 49 | 1017.3 |
| 20260903175040 | 97 | 337 | 2.0 | 3.0 | 0.00 | 0.00 | 0.00 | 49 | 1017.4 |
| 20260903174535 | 96 | 291 | 2.0 | 2.0 | 0.00 | 0.00 | 0.00 | 51 | 1017.7 |
| 20260903174029 | 97 | 5 | 1.0 | 2.0 | 0.00 | 0.00 | 0.00 | 50 | 1017.7 |
| 20260903173524 | 96 | 324 | 0.0 | 0.0 | 0.00 | 0.00 | 0.00 | 53 | 1017.6 |
| 20260903173020 | 96 | 187 | 5.0 | 6.0 | 0.00 | 0.00 | 0.00 | 53 | 1017.6 |
| 20260903172514 | 95 | 284 | 2.0 | 2.0 | 0.00 | 0.00 | 0.00 | 52 | 1017.8 |
| 20260903172010 | 96 | 358 | 1.0 | 2.0 | 0.00 | 0.00 | 0.00 | 50 | 1017.9 |
| 20260903171505 | 95 | 266 | 1.0 | 2.0 | 0.00 | 0.00 | 0.00 | 53 | 1017.8 |
| 20260903171000 | 96 | 306 | 4.0 | 7.0 | 0.00 | 0.00 | 0.00 | 49 | 1017.8 |
| 20260903170459 | 96 | 344 | 0.0 | 0.0 | 0.00 | 0.00 | 0.00 | 52 | 1017.7 |
| 20260903165954 | 96 | 332 | 4.0 | 8.0 | 0.00 | 0.00 | 0.00 | 50 | 1017.9 |
| 20260903165453 | 95 | 305 | 2.0 | 2.0 | 0.00 | 0.00 | 0.00 | 51 | 1017.9 |
| 20260903164948 | 95 | 335 | 3.0 | 3.0 | 0.00 | 0.00 | 0.00 | 51 | 1017.9 |
| 20260903164444 | 95 | 324 | 4.0 | 6.0 | 0.00 | 0.00 | 0.00 | 50 | 1018.1 |
| 20260903163943 | 95 | 330 | 3.0 | 5.0 | 0.00 | 0.00 | 0.00 | 51 | 1018.0 |
| 20260903163439 | 96 | 303 | 1.0 | 1.0 | 0.00 | 0.00 | 0.00 | 52 | 1018.0 |
| 20260903162935 | 94 | 315 | 1.0 | 5.0 | 0.00 | 0.00 | 0.00 | 54 | 1018.2 |
| 20260903162431 | 95 | 217 | 3.0 | 3.0 | 0.00 | 0.00 | 0.00 | 55 | 1018.3 |
| 20260903161926 | 95 | 356 | 2.0 | 3.0 | 0.00 | 0.00 | 0.00 | 53 | 1018.5 |
| 20260903161421 | 96 | 322 | 1.0 | 1.0 | 0.00 | 0.00 | 0.00 | 53 | 1018.2 |
| 20260903160918 | 94 | 336 | 3.0 | 5.0 | 0.00 | 0.00 | 0.00 | 54 | 1018.4 |
| 20260903160416 | 94 | 303 | 3.0 | 5.0 | 0.00 | 0.00 | 0.00 | 53 | 1018.7 |
| 20260903155915 | 94 | 296 | 4.0 | 5.0 | 0.00 | 0.00 | 0.00 | 54 | 1018.5 |
| 20260903155410 | 95 | 280 | 4.0 | 5.0 | 0.00 | 0.00 | 0.00 | 52 | 1018.5 |
| 20260903154907 | 94 | 314 | 0.0 | 1.0 | 0.00 | 0.00 | 0.00 | 55 | 1018.4 |
| 20260903154402 | 95 | 334 | 0.0 | 0.0 | 0.00 | 0.00 | 0.00 | 54 | 1018.3 |
| 20260903153902 | 94 | 335 | 0.0 | 0.0 | 0.00 | 0.00 | 0.00 | 54 | 1018.3 |
| 20260903153358 | 93 | 340 | 2.0 | 3.0 | 0.00 | 0.00 | 0.00 | 54 | 1018.2 |
| 20260903152854 | 93 | 281 | 2.0 | 2.0 | 0.00 | 0.00 | 0.00 | 55 | 1018.3 |
| 20260903152350 | 93 | 40 | 3.0 | 5.0 | 0.00 | 0.00 | 0.00 | 59 | 1018.3 |
| 20260903151845 | 92 | 344 | 3.0 | 5.0 | 0.00 | 0.00 | 0.00 | 61 | 1018.4 |
| 20260903151341 | 93 | 49 | 3.0 | 3.0 | 0.00 | 0.00 | 0.00 | 61 | 1018.4 |
| 20260903150840 | 92 | 328 | 1.0 | 1.0 | 0.00 | 0.00 | 0.00 | 62 | 1018.5 |
| 20260903150335 | 91 | 345 | 1.0 | 2.0 | 0.00 | 0.00 | 0.00 | 64 | 1018.3 |
| 20260903145830 | 91 | 341 | 1.0 | 2.0 | 0.00 | 0.00 | 0.00 | 65 | 1018.4 |
| 20260903145325 | 90 | 299 | 3.0 | 3.0 | 0.00 | 0.00 | 0.00 | 65 | 1018.4 |
| 20260903144824 | 90 | 343 | 3.0 | 3.0 | 0.00 | 0.00 | 0.00 | 68 | 1018.2 |
| 20260903144320 | 90 | 282 | 1.0 | 1.0 | 0.00 | 0.00 | 0.00 | 70 | 1018.2 |
| 20260903143815 | 89 | 332 | 1.0 | 2.0 | 0.00 | 0.00 | 0.00 | 71 | 1018.4 |
| 20260903143312 | 89 | 347 | 0.0 | 0.0 | 0.00 | 0.00 | 0.00 | 71 | 1018.3 |
| 20260903142807 | 88 | 317 | 0.0 | 0.0 | 0.00 | 0.00 | 0.00 | 72 | 1018.4 |
| 20260903142306 | 87 | 344 | 1.0 | 1.0 | 0.00 | 0.00 | 0.00 | 74 | 1018.4 |
| 20260903141759 | 87 | 324 | 1.0 | 2.0 | 0.00 | 0.00 | 0.00 | 75 | 1018.3 |
| 20260903141255 | 87 | 331 | 1.0 | 2.0 | 0.00 | 0.00 | 0.00 | 75 | 1018.3 |
| 20260903140754 | 86 | 277 | 2.0 | 2.0 | 0.00 | 0.00 | 0.00 | 77 | 1018.3 |
| 20260903140249 | 85 | 328 | 1.0 | 2.0 | 0.00 | 0.00 | 0.00 | 76 | 1018.5 |
| 20260903135740 | 85 | 225 | 3.0 | 5.0 | 0.00 | 0.00 | 0.00 | 78 | 1018.5 |
| 20260903135235 | 85 | 186 | 3.0 | 3.0 | 0.00 | 0.00 | 0.00 | 78 | 1018.6 |
| 20260903134734 | 84 | 197 | 1.0 | 3.0 | 0.00 | 0.00 | 0.00 | 78 | 1018.6 |
| 20260903134230 | 84 | 291 | 0.0 | 0.0 | 0.00 | 0.00 | 0.00 | 80 | 1018.5 |
| 20260903133727 | 84 | 300 | 0.0 | 0.0 | 0.00 | 0.00 | 0.00 | 79 | 1018.6 |
| 20260903133223 | 84 | 344 | 0.0 | 0.0 | 0.00 | 0.00 | 0.00 | 80 | 1018.7 |
| 20260903132723 | 83 | 345 | 0.0 | 0.0 | 0.00 | 0.00 | 0.00 | 80 | 1018.9 |
| 20260903132218 | 82 | 340 | 0.0 | 0.0 | 0.00 | 0.00 | 0.00 | 82 | 1019.0 |
| 20260903131713 | 82 | 317 | 0.0 | 0.0 | 0.00 | 0.00 | 0.00 | 82 | 1018.9 |
| 20260903131213 | 81 | 341 | 0.0 | 0.0 | 0.00 | 0.00 | 0.00 | 84 | 1019.1 |
| 20260903130708 | 80 | 358 | 0.0 | 0.0 | 0.00 | 0.00 | 0.00 | 85 | 1019.0 |
| 20260903130203 | 80 | 318 | 0.0 | 0.0 | 0.00 | 0.00 | 0.00 | 86 | 1019.0 |
| 20260903125700 | 80 | 1 | 0.0 | 0.0 | 0.00 | 0.00 | 0.00 | 87 | 1018.9 |
| 20260903125156 | 79 | 353 | 0.0 | 0.0 | 0.00 | 0.00 | 0.00 | 88 | 1019.1 |
| 20260903124655 | 78 | 351 | 0.0 | 0.0 | 0.00 | 0.00 | 0.00 | 91 | 1018.9 |
| 20260903124155 | 77 | 352 | 0.0 | 0.0 | 0.00 | 0.00 | 0.00 | 93 | 1018.9 |
| 20260903123654 | 75 | 351 | 0.0 | 0.0 | 0.00 | 0.00 | 0.00 | 98 | 1019.0 |
| 20260903123154 | 74 | 355 | 0.0 | 0.0 | 0.00 | 0.00 | 0.00 | 99 | 1018.6 |
| 20260903122653 | 74 | 341 | 0.0 | 0.0 | 0.00 | 0.00 | 0.00 | 99 | 1018.9 |
| 20260903122148 | 73 | 341 | 0.0 | 0.0 | 0.00 | 0.00 | 0.00 | 99 | 1018.9 |
| 20260903121647 | 73 | 352 | 0.0 | 0.0 | 0.00 | 0.00 | 0.00 | 99 | 1018.9 |
| 20260903121143 | 73 | 351 | 0.0 | 0.0 | 0.00 | 0.00 | 0.00 | 99 | 1019.0 |
| 20260903120642 | 72 | 345 | 0.0 | 0.0 | 0.00 | 0.00 | 0.00 | 99 | 1019.0 |
| 20260903120137 | 72 | 346 | 0.0 | 0.0 | 0.00 | 0.00 | 0.00 | 99 | 1019.0 |
| 20260903115635 | 73 | 345 | 0.0 | 0.0 | 0.00 | 0.00 | 0.00 | 99 | 1018.9 |
| 20260903115130 | 71 | 345 | 0.0 | 0.0 | 0.00 | 0.00 | 0.00 | 99 | 1019.0 |
| 20260903114626 | 71 | 345 | 0.0 | 0.0 | 0.00 | 0.00 | 0.00 | 99 | 1018.7 |
| 20260903114121 | 71 | 346 | 0.0 | 0.0 | 0.00 | 0.00 | 0.00 | 99 | 1018.8 |
| 20260903113616 | 70 | 344 | 0.0 | 0.0 | 0.00 | 0.00 | 0.00 | 99 | 1018.7 |
| 20260903113112 | 70 | 346 | 0.0 | 0.0 | 0.00 | 0.00 | 0.00 | 99 | 1018.8 |
| 20260903112609 | 71 | 347 | 0.0 | 0.0 | 0.00 | 0.00 | 0.00 | 99 | 1018.7 |
| 20260903112108 | 71 | 347 | 0.0 | 0.0 | 0.00 | 0.00 | 0.00 | 99 | 1018.7 |
| 20260903111607 | 71 | 344 | 0.0 | 0.0 | 0.00 | 0.00 | 0.00 | 99 | 1018.8 |
| 20260903111058 | 70 | 347 | 0.0 | 0.0 | 0.00 | 0.00 | 0.00 | 99 | 1018.5 |
| 20260903110553 | 70 | 350 | 0.0 | 0.0 | 0.00 | 0.00 | 0.00 | 99 | 1018.4 |